| time (UTC) | temp F | wind direction | speed knots | gust knots | rain 1hr in | rain 24hr in | rain mn in | humidity % | barometer mb |
| 20260902133019 | 67 | 158 | 1.7 | 5.2 | 0.00 | 0.01 | 0.01 | 84 | 1022.7 |
| 20260902131515 | 67 | 61 | 1.7 | 5.2 | 0.00 | 0.01 | 0.01 | 85 | 1022.8 |
| 20260902130012 | 66 | 102 | 0.9 | 4.3 | 0.00 | 0.01 | 0.01 | 86 | 1022.7 |
| 20260902124510 | 64 | 357 | 2.6 | 5.2 | 0.00 | 0.01 | 0.01 | 86 | 1022.6 |
| 20260902123011 | 64 | 49 | 1.7 | 5.2 | 0.00 | 0.01 | 0.01 | 86 | 1022.6 |
| 20260902121508 | 64 | 299 | 0.9 | 4.3 | 0.00 | 0.01 | 0.01 | 88 | 1022.6 |
| 20260902120003 | 63 | 38 | 1.7 | 6.1 | 0.00 | 0.01 | 0.01 | 88 | 1022.6 |
| 20260902114659 | 62 | 47 | 1.7 | 7.0 | 0.00 | 0.01 | 0.01 | 89 | 1022.6 |
| 20260902113100 | 62 | 80 | 0.0 | 3.5 | 0.00 | 0.01 | 0.01 | 90 | 1022.6 |
| 20260902111554 | 61 | 39 | 1.7 | 4.3 | 0.00 | 0.01 | 0.01 | 91 | 1022.5 |
| 20260902110056 | 60 | 49 | 0.9 | 4.3 | 0.00 | 0.01 | 0.01 | 91 | 1022.6 |
| 20260902104614 | 60 | 50 | 0.0 | 2.6 | 0.00 | 0.01 | 0.01 | 92 | 1022.5 |
| 20260902103046 | 59 | 60 | 0.0 | 0.9 | 0.00 | 0.01 | 0.01 | 93 | 1022.4 |
| 20260902101544 | 58 | 13 | 0.0 | 2.6 | 0.00 | 0.01 | 0.01 | 93 | 1022.3 |
| 20260902100106 | 57 | 61 | 0.0 | 3.5 | 0.00 | 0.01 | 0.01 | 93 | 1022.3 |
| 20260902094542 | 57 | 57 | 0.0 | 2.6 | 0.00 | 0.01 | 0.01 | 94 | 1022.1 |
| 20260902093041 | 56 | 79 | 0.0 | 1.7 | 0.01 | 0.01 | 0.01 | 94 | 1022.0 |
| 20260902091540 | 57 | 248 | 0.0 | 0.9 | 0.01 | 0.01 | 0.01 | 94 | 1021.8 |
| 20260902090039 | 56 | 340 | 0.0 | 1.7 | 0.01 | 0.01 | 0.01 | 94 | 1021.8 |
| 20260902084536 | 57 | 80 | 0.0 | 0.9 | 0.01 | 0.01 | 0.01 | 94 | 1021.5 |
| 20260902083034 | 56 | 267 | 0.0 | 1.7 | 0.00 | 0.00 | 0.00 | 94 | 1021.5 |
| 20260902081544 | 56 | 114 | 0.0 | 0.0 | 0.00 | 0.00 | 0.00 | 94 | 1021.4 |
| 20260902080034 | 56 | 115 | 0.0 | 0.0 | 0.00 | 0.00 | 0.00 | 93 | 1021.3 |
| 20260902074530 | 56 | 115 | 0.0 | 0.0 | 0.00 | 0.00 | 0.00 | 93 | 1021.2 |
| 20260902073028 | 57 | 351 | 0.0 | 3.5 | 0.00 | 0.00 | 0.00 | 93 | 1021.2 |
| 20260902071534 | 57 | 38 | 0.0 | 2.6 | 0.00 | 0.00 | 0.00 | 93 | 1021.1 |
| 20260902070026 | 56 | 140 | 0.0 | 0.9 | 0.00 | 0.00 | 0.00 | 93 | 1021.0 |
| 20260902064523 | 57 | 69 | 0.0 | 0.0 | 0.00 | 0.00 | 0.00 | 93 | 1020.8 |
| 20260902063023 | 57 | 65 | 0.0 | 0.9 | 0.00 | 0.00 | 0.00 | 93 | 1020.7 |
| 20260902061519 | 57 | 39 | 0.0 | 1.7 | 0.00 | 0.00 | 0.00 | 93 | 1020.6 |
| 20260902060018 | 57 | 49 | 0.0 | 2.6 | 0.00 | 0.00 | 0.00 | 93 | 1020.5 |
| 20260902054517 | 58 | 54 | 0.9 | 3.5 | 0.00 | 0.00 | 0.00 | 93 | 1020.4 |
| 20260902053016 | 57 | 68 | 0.0 | 5.2 | 0.00 | 0.00 | 0.00 | 93 | 1020.3 |
| 20260902051514 | 58 | 120 | 0.0 | 4.3 | 0.00 | 0.00 | 0.00 | 93 | 1020.2 |
| 20260902050019 | 58 | 48 | 0.9 | 4.3 | 0.00 | 0.00 | 0.00 | 93 | 1020.1 |
| 20260902044532 | 58 | 40 | 0.9 | 3.5 | 0.00 | 0.00 | 0.00 | 93 | 1020.2 |
| 20260902043010 | 58 | 49 | 0.0 | 2.6 | 0.00 | 0.00 | 0.00 | 93 | 1020.1 |
| 20260902041512 | 57 | 49 | 0.0 | 0.9 | 0.00 | 0.00 | 0.00 | 93 | 1020.0 |
| 20260902040007 | 57 | 61 | 0.0 | 0.0 | 0.00 | 0.00 | 0.00 | 93 | 1020.0 |
| 20260902034506 | 58 | 61 | 0.0 | 0.9 | 0.00 | 0.00 | 0.00 | 93 | 1020.0 |
| 20260902033005 | 58 | 58 | 0.0 | 0.9 | 0.00 | 0.00 | 0.00 | 93 | 1019.9 |
| 20260902031508 | 58 | 59 | 0.0 | 0.0 | 0.00 | 0.00 | 0.00 | 92 | 1019.9 |
| 20260902030002 | 58 | 61 | 0.0 | 0.9 | 0.00 | 0.00 | 0.00 | 92 | 1019.8 |
| 20260902024613 | 58 | 51 | 0.0 | 2.6 | 0.00 | 0.00 | 0.00 | 92 | 1019.8 |
| 20260902023100 | 58 | 65 | 0.0 | 1.7 | 0.00 | 0.00 | 0.00 | 92 | 1019.8 |
| 20260902021600 | 58 | 262 | 0.0 | 0.9 | 0.00 | 0.00 | 0.00 | 92 | 1019.8 |
| 20260902020126 | 58 | 141 | 0.0 | 0.9 | 0.00 | 0.00 | 0.00 | 92 | 1019.7 |
| 20260902014601 | 59 | 33 | 0.0 | 0.9 | 0.00 | 0.00 | 0.00 | 92 | 1019.6 |
| 20260902013056 | 59 | 344 | 0.0 | 0.9 | 0.00 | 0.00 | 0.00 | 92 | 1019.5 |
| 20260902011555 | 59 | 344 | 0.0 | 0.0 | 0.00 | 0.00 | 0.00 | 92 | 1019.4 |
| 20260902010054 | 59 | 3 | 0.0 | 0.9 | 0.00 | 0.00 | 0.00 | 91 | 1019.3 |
| 20260902004552 | 59 | 60 | 0.0 | 0.0 | 0.00 | 0.00 | 0.00 | 90 | 1019.2 |
| 20260902003050 | 61 | 270 | 0.0 | 0.9 | 0.00 | 0.00 | 0.00 | 89 | 1019.0 |
| 20260902001550 | 62 | 252 | 0.0 | 2.6 | 0.00 | 0.00 | 0.00 | 90 | 1019.0 |
| 20260902000049 | 62 | 276 | 0.0 | 1.7 | 0.00 | 0.00 | 0.00 | 90 | 1019.0 |
| 20260901234602 | 62 | 264 | 0.0 | 2.6 | 0.00 | 0.00 | 0.00 | 90 | 1018.9 |
| 20260901233146 | 63 | 276 | 0.0 | 0.9 | 0.00 | 0.00 | 0.00 | 89 | 1018.7 |
| 20260901231545 | 63 | 325 | 0.0 | 0.9 | 0.00 | 0.00 | 0.00 | 88 | 1018.4 |
| 20260901230049 | 64 | 270 | 0.0 | 2.6 | 0.00 | 0.00 | 0.00 | 87 | 1018.3 |
| 20260901224547 | 65 | 255 | 0.9 | 4.3 | 0.00 | 0.00 | 0.00 | 84 | 1018.2 |
| 20260901223049 | 66 | 262 | 1.7 | 6.1 | 0.00 | 0.00 | 0.00 | 82 | 1018.3 |
| 20260901221606 | 67 | 256 | 1.7 | 5.2 | 0.00 | 0.00 | 0.00 | 81 | 1018.2 |
| 20260901220042 | 67 | 243 | 3.5 | 6.1 | 0.00 | 0.00 | 0.00 | 79 | 1018.2 |
| 20260901214539 | 68 | 258 | 2.6 | 7.0 | 0.00 | 0.00 | 0.00 | 78 | 1018.0 |
| 20260901213040 | 69 | 223 | 3.5 | 7.8 | 0.00 | 0.00 | 0.00 | 77 | 1017.9 |
| 20260901211538 | 69 | 252 | 3.5 | 7.0 | 0.00 | 0.00 | 0.00 | 76 | 1017.9 |
| 20260901210038 | 68 | 229 | 3.5 | 8.7 | 0.00 | 0.00 | 0.00 | 79 | 1017.7 |
| 20260901204537 | 68 | 285 | 3.5 | 6.1 | 0.00 | 0.00 | 0.00 | 81 | 1017.6 |
| 20260901203048 | 68 | 222 | 3.5 | 6.1 | 0.00 | 0.00 | 0.00 | 81 | 1017.7 |
| 20260901201545 | 68 | 229 | 2.6 | 7.0 | 0.00 | 0.00 | 0.00 | 82 | 1017.6 |
| 20260901200035 | 68 | 237 | 3.5 | 8.7 | 0.00 | 0.00 | 0.00 | 82 | 1017.6 |
| 20260901194534 | 68 | 247 | 4.3 | 7.0 | 0.00 | 0.00 | 0.00 | 81 | 1017.6 |
| 20260901193034 | 70 | 205 | 2.6 | 8.7 | 0.00 | 0.00 | 0.00 | 78 | 1017.5 |
| 20260901191534 | 70 | 253 | 4.3 | 8.7 | 0.00 | 0.00 | 0.00 | 80 | 1017.4 |
| 20260901190041 | 69 | 236 | 4.3 | 8.7 | 0.00 | 0.00 | 0.00 | 81 | 1017.4 |
| 20260901184535 | 68 | 245 | 4.3 | 7.8 | 0.00 | 0.00 | 0.00 | 80 | 1017.4 |
| 20260901183034 | 68 | 204 | 3.5 | 8.7 | 0.00 | 0.00 | 0.00 | 80 | 1017.2 |
| 20260901181532 | 68 | 250 | 5.2 | 7.8 | 0.00 | 0.00 | 0.00 | 79 | 1017.4 |
| 20260901180031 | 67 | 256 | 4.3 | 10.4 | 0.00 | 0.00 | 0.00 | 81 | 1017.6 |
| 20260901174533 | 68 | 243 | 3.5 | 7.0 | 0.00 | 0.00 | 0.00 | 82 | 1017.6 |
| 20260901173030 | 67 | 193 | 2.6 | 7.0 | 0.00 | 0.00 | 0.00 | 83 | 1017.7 |
| 20260901171530 | 67 | 252 | 3.5 | 7.0 | 0.00 | 0.00 | 0.00 | 83 | 1017.7 |
| 20260901170030 | 67 | 205 | 2.6 | 6.1 | 0.00 | 0.00 | 0.00 | 82 | 1017.8 |
| 20260901164529 | 68 | 264 | 2.6 | 7.8 | 0.00 | 0.00 | 0.00 | 80 | 1017.7 |
| 20260901163028 | 68 | 255 | 3.5 | 11.3 | 0.00 | 0.00 | 0.00 | 81 | 1017.5 |
| 20260901161537 | 68 | 208 | 3.5 | 8.7 | 0.00 | 0.00 | 0.00 | 80 | 1017.7 |
| 20260901160041 | 69 | 182 | 4.3 | 9.6 | 0.00 | 0.00 | 0.00 | 77 | 1017.7 |
| 20260901154527 | 69 | 233 | 3.5 | 10.4 | 0.00 | 0.00 | 0.00 | 78 | 1017.9 |
| 20260901153027 | 70 | 231 | 5.2 | 11.3 | 0.00 | 0.00 | 0.00 | 74 | 1017.9 |
| 20260901151525 | 69 | 236 | 5.2 | 9.6 | 0.00 | 0.00 | 0.00 | 73 | 1018.0 |
| 20260901150029 | 68 | 223 | 3.5 | 7.8 | 0.00 | 0.00 | 0.00 | 74 | 1017.9 |
| 20260901144521 | 69 | 168 | 3.5 | 9.6 | 0.00 | 0.00 | 0.00 | 72 | 1017.8 |
| 20260901143021 | 69 | 181 | 2.6 | 7.0 | 0.00 | 0.00 | 0.00 | 73 | 1017.8 |
| 20260901141519 | 69 | 127 | 2.6 | 6.1 | 0.00 | 0.00 | 0.00 | 73 | 1017.8 |
| 20260901140017 | 70 | 37 | 0.0 | 0.9 | 0.00 | 0.00 | 0.00 | 78 | 1017.8 |
| 20260901134528 | 69 | 141 | 0.0 | 2.6 | 0.00 | 0.00 | 0.00 | 77 | 1017.8 |